[[{"header":{"parameterUnit":"m.s-1","parameterCategory":1,"la1":30.2991,"la2":30.254,"lo1":-89.0895,"lo2":-89.0444,"dy":0.0017,"dx":0.0017,"nx":28,"ny":28,"refTime":"2025-06-09T03:00:00:Z","depth":0,"parameterNumber":2,"parameterNumberName":"U-component_of_WINDS"},"data":[0,0,0,0,0,0,0,0,0,0,0,0,0,0,0,0,0,0,0,0,0,0,0,0,0,0,0,0,0,0,0,0,0,0,0,0,0,0,0,0,0,0,0,0,0,0,0,0,0,0,0,0,0,0,0,0,0,0,2.7864,2.7864,0,2.7894,2.7894,2.7894,2.7913,2.7913,2.7913,2.7913,2.7945,2.7946,2.7946,0,0,0,0,0,0,0,0,0,0,0,0,0,2.7824,2.7825,2.7864,2.7864,2.7864,2.7894,2.7894,2.7895,2.7913,2.7913,2.7913,2.7913,2.7945,2.7946,2.7946,0,0,0,0,0,0,0,0,0,0,0,0,0,2.7847,2.7825,2.7864,2.7877,2.7878,2.7894,2.7894,2.7895,2.7913,2.7913,2.7913,2.7913,2.7944,2.7945,2.7947,2.7951,0,0,2.795,2.7951,0,0,0,0,0,0,0,0,2.7845,2.7848,2.7875,2.7876,2.7878,2.79,2.7892,2.7914,2.7913,2.79,2.7913,2.7913,2.793,2.7932,2.7938,2.7953,2.7954,2.795,2.7951,2.7951,2.7952,0,0,0,0,0,0,0,2.7844,2.7847,2.7876,2.7875,2.7877,2.7882,2.7886,2.7896,2.7914,2.7901,2.7902,2.7905,2.7931,2.7936,2.7938,2.7955,2.795,2.7951,2.7952,2.7952,2.7977,2.7977,0,0,0,0,0,0,2.784,2.7845,2.7875,2.7877,2.7862,2.7883,2.7887,2.7892,2.7914,2.7917,2.7905,2.7906,2.7934,2.7937,2.794,2.7947,2.7951,2.7953,2.7953,2.7977,2.7977,2.7977,0,0,0,0,0,0,2.7839,2.7842,2.7873,2.7861,2.7866,2.7883,2.789,2.7893,2.7899,2.7917,2.792,2.7908,2.7935,2.7938,2.7949,2.7949,2.7953,2.7954,2.7977,2.7977,2.7977,2.7962,0,0,0,0,0,0,2.7838,2.7842,2.7843,2.7861,2.7866,2.7881,2.789,2.7893,2.79,2.7902,2.792,2.7923,2.7935,2.7947,2.795,2.795,2.7955,2.7977,2.7977,2.7977,2.7962,2.7961,2.796,0,0,0,0,0,2.7836,2.7838,2.7843,2.7846,2.7868,2.7881,2.7884,2.7897,2.79,2.7902,2.7914,2.7923,2.7948,2.7948,2.7951,2.7952,2.7977,2.7977,2.7977,2.7963,2.7962,2.796,0,0,0,0,0,0,2.7819,2.784,2.7846,2.7853,2.7865,2.7884,2.7886,2.7895,2.7906,2.7907,2.7923,2.7927,2.7936,2.7945,2.7944,2.7959,2.7964,2.7964,2.7952,2.7951,2.795,2.7947,2.7956,0,0,0,0,0,2.7816,2.7824,2.7842,2.7847,2.7852,2.7868,2.7874,2.7884,2.7897,2.7902,2.7914,2.7927,2.7938,2.7945,2.7956,2.7964,2.7969,2.7967,2.7966,2.7965,2.7965,2.7971,2.7971,2.7977,2.7977,2.7977,0,0,2.7809,2.7822,2.7826,2.7844,2.7854,2.7862,2.7872,2.7881,2.7888,2.7903,2.7914,2.7924,2.7939,2.7949,2.7954,2.7957,2.7965,2.7965,2.7964,2.7965,2.7971,2.7971,2.797,2.7977,2.7977,2.7977,0,0,2.7802,2.7812,2.7818,2.7828,2.7844,2.7855,2.7856,2.7874,2.7881,2.7892,2.7904,2.7913,2.7932,2.7943,2.7951,2.795,2.7959,2.7953,2.7948,2.7953,2.7953,2.7953,2.7953,2.7953,2.7954,2.7954,2.7954,0,2.7792,2.7805,2.7819,2.7828,2.7835,2.785,2.7856,2.7866,2.7884,2.789,2.7893,2.7918,2.7929,2.7942,2.7942,2.7948,2.7951,2.7951,2.7952,2.7952,2.7952,2.7952,2.7952,2.7953,2.7953,2.7953,2.7953,0,2.7793,2.7802,2.7805,2.7822,2.783,2.7837,2.7854,2.7861,2.787,2.7881,2.7893,2.7907,2.7922,2.7926,2.7935,2.7941,2.7943,2.7949,2.7954,2.795,2.7951,2.7951,2.7952,2.7952,2.7952,2.7952,0,0,2.7774,2.78,2.7801,2.781,2.7829,2.7837,2.7845,2.786,2.7866,2.7879,2.7887,2.7903,2.7909,2.7919,2.7929,2.7934,2.7934,2.794,2.7941,2.7939,2.7943,2.7938,2.7938,2.794,2.794,2.794,2.7942,0,2.777,2.7785,2.7799,2.7809,2.7819,2.7834,2.7842,2.7855,2.7866,2.7876,2.7889,2.79,2.7907,2.7913,2.7919,2.7933,2.7935,2.7933,2.7949,2.7949,2.7944,2.7938,2.7932,2.7933,2.7942,2.7942,2.7942,0,2.7766,2.7778,2.779,2.781,2.7814,2.782,2.7836,2.7845,2.7861,2.7869,2.788,2.7891,2.7903,2.7908,2.7924,2.7922,2.793,2.7938,2.7938,2.794,2.7945,2.794,2.7933,2.7933,2.7943,2.7943,2.7943,0,2.7751,2.7771,2.7781,2.7788,2.7811,2.7815,2.7825,2.7841,2.785,2.7864,2.787,2.7885,2.7893,2.7905,2.7921,2.7923,2.7936,2.7942,2.7943,2.7943,2.7945,2.7944,2.7939,2.795,2.795,2.795,2.795,0,2.7745,2.7751,2.7775,2.778,2.7789,2.7806,2.7814,2.7825,2.784,2.7849,2.7864,2.7872,2.7893,2.7904,2.7917,2.7929,2.7933,2.794,2.7943,2.7938,2.7938,2.7943,2.7944,2.795,2.795,2.795,2.795,0,2.7729,2.7745,2.7757,2.7778,2.7784,2.7789,2.7808,2.7815,2.7828,2.7839,2.7843,2.7863,2.7878,2.7895,2.7915,2.7924,2.7935,2.794,2.7929,2.7931,2.7931,2.7931,2.793,2.7931,2.7941,2.794,2.794,0,2.7724,2.7729,2.7751,2.7759,2.7768,2.7779,2.7788,2.7806,2.7815,2.7835,2.7839,2.7855,2.7868,2.7891,2.7908,2.7924,2.793,2.7928,2.7932,2.7928,2.793,2.7929,2.793,2.7927,2.7926,2.7926,2.7926,0,2.7712,2.772,2.7732,2.7747,2.7758,2.777,2.7784,2.7789,2.781,2.782,2.7835,2.7845,2.7866,2.7882,2.79,2.7912,2.7923,2.7925,2.7926,2.7921,2.7915,2.7919,2.7926,2.7925,2.7925,2.7925,2.7925,2.7925,2.7702,2.7708,2.7725,2.7738,2.775,2.7763,2.7771,2.7785,2.7798,2.7816,2.7826,2.7841,2.7859,2.7885,2.7896,2.7909,2.7913,2.7915,2.7915,2.7915,2.7914,2.7913,2.7913,2.7913,2.7913,2.7913,2.7913,0,2.7691,2.7703,2.7716,2.7734,2.7745,2.7755,2.7771,2.778,2.7792,2.7808,2.7821,2.7839,2.7855,2.7874,2.7892,2.7899,2.7904,2.7903,2.7902,2.7905,2.7909,2.7907,2.7898,2.7898,2.7898,2.7898,2.7898,2.7898,2.7687,2.7698,2.7708,2.7726,2.7739,2.7753,2.7762,2.7774,2.7787,2.7806,2.782,2.7832,2.7849,2.7869,2.7884,2.789,2.7896,2.7892,2.7899,2.7903,2.7904,2.7906,2.7903,2.7894,2.7894,2.7894,2.7894,2.7894]},{"header":{"parameterUnit":"m.s-1","parameterCategory":1,"la1":30.2991,"la2":30.254,"lo1":-89.0895,"lo2":-89.0444,"dy":0.0017,"dx":0.0017,"nx":28,"ny":28,"refTime":"2025-06-09T03:00:00:Z","depth":0,"parameterNumber":3,"parameterNumberName":"V-component_of_WINDS"},"data":[0,0,0,0,0,0,0,0,0,0,0,0,0,0,0,0,0,0,0,0,0,0,0,0,0,0,0,0,0,0,0,0,0,0,0,0,0,0,0,0,0,0,0,0,0,0,0,0,0,0,0,0,0,0,0,0,0,0,3.7773,3.7774,0,3.7822,3.7823,3.7823,3.7834,3.7834,3.7834,3.7833,3.7878,3.788,3.7881,0,0,0,0,0,0,0,0,0,0,0,0,0,3.7686,3.7688,3.7773,3.7774,3.7775,3.7822,3.7823,3.7823,3.7834,3.7834,3.7833,3.7833,3.7878,3.788,3.7881,0,0,0,0,0,0,0,0,0,0,0,0,0,3.7728,3.7688,3.7773,3.7786,3.7788,3.7822,3.7823,3.7823,3.7834,3.7834,3.7833,3.7833,3.7877,3.7879,3.7882,3.7905,0,0,3.7888,3.7889,0,0,0,0,0,0,0,0,3.7726,3.7731,3.7783,3.7785,3.7787,3.7822,3.7808,3.7851,3.7834,3.7816,3.7833,3.7833,3.786,3.7863,3.7873,3.7907,3.7909,3.7889,3.789,3.7891,3.7892,0,0,0,0,0,0,0,3.7723,3.7729,3.7792,3.7784,3.7786,3.7788,3.7793,3.7816,3.784,3.7818,3.7819,3.7825,3.786,3.7871,3.7874,3.791,3.7889,3.7891,3.7892,3.7893,3.7966,3.7967,0,0,0,0,0,0,3.7718,3.7727,3.7791,3.7794,3.7755,3.779,3.7796,3.7811,3.784,3.7844,3.7825,3.7825,3.7867,3.7872,3.7876,3.7906,3.7891,3.7893,3.7894,3.7965,3.7966,3.7967,0,0,0,0,0,0,3.7717,3.7724,3.7789,3.7761,3.7769,3.7792,3.7809,3.7812,3.7823,3.7845,3.7849,3.7832,3.7867,3.7873,3.7898,3.7908,3.7894,3.7896,3.7965,3.7966,3.7966,3.7965,0,0,0,0,0,0,3.7714,3.7723,3.7733,3.7761,3.7771,3.7812,3.7809,3.7813,3.7827,3.7828,3.7853,3.7856,3.7867,3.7895,3.79,3.791,3.7898,3.7964,3.7965,3.7966,3.7965,3.7966,3.7967,0,0,0,0,0,3.7711,3.773,3.7734,3.7741,3.7784,3.7812,3.7818,3.7831,3.7828,3.7838,3.7852,3.7855,3.7906,3.7897,3.7904,3.7914,3.7963,3.7965,3.7966,3.7964,3.7966,3.7967,0,0,0,0,0,0,3.7701,3.7734,3.7738,3.7767,3.7787,3.7814,3.7827,3.7832,3.7852,3.7852,3.7866,3.7872,3.7896,3.7908,3.7898,3.7939,3.7934,3.7937,3.7931,3.7932,3.7934,3.793,3.79,0,0,0,0,0,3.7703,3.7724,3.7751,3.7774,3.7784,3.7804,3.7816,3.7825,3.7846,3.7854,3.787,3.7888,3.7908,3.7921,3.794,3.7967,3.7972,3.7977,3.7978,3.7979,3.7981,3.7996,3.7999,3.7971,3.7971,3.7971,0,0,3.7705,3.7726,3.7738,3.7772,3.7789,3.781,3.781,3.7832,3.7848,3.7856,3.7882,3.7895,3.7916,3.7942,3.7954,3.7952,3.799,3.7981,3.7982,3.7983,3.7998,3.8001,3.8003,3.7972,3.7972,3.7972,0,0,3.7721,3.7739,3.776,3.7777,3.7803,3.7816,3.7821,3.7847,3.7857,3.7883,3.789,3.7908,3.7942,3.7957,3.7969,3.7992,3.7996,3.7998,3.8005,3.8019,3.8021,3.8023,3.8031,3.8034,3.8,3.8,3.8,0,3.772,3.7754,3.777,3.7792,3.7807,3.7818,3.7839,3.7854,3.7884,3.7893,3.7891,3.7935,3.795,3.798,3.7986,3.7995,3.8001,3.7995,3.802,3.8022,3.8024,3.8032,3.8035,3.8,3.8,3.8,3.8,0,3.7752,3.7775,3.7789,3.782,3.7836,3.7857,3.7876,3.789,3.7898,3.7911,3.7937,3.7956,3.798,3.7988,3.7995,3.8019,3.8017,3.8017,3.8013,3.8027,3.8034,3.8038,3.8,3.8,3.8,3.8,0,0,3.7762,3.7803,3.7808,3.7822,3.7852,3.7869,3.789,3.7916,3.7928,3.7948,3.7966,3.7995,3.7996,3.801,3.8018,3.8031,3.8048,3.803,3.8031,3.8033,3.8076,3.8076,3.8079,3.8051,3.8052,3.8052,3.8074,0,3.7782,3.7823,3.7838,3.7871,3.7893,3.7904,3.7922,3.7942,3.7955,3.7974,3.7987,3.8008,3.8007,3.8016,3.8029,3.8043,3.8057,3.8042,3.8067,3.8068,3.8062,3.8083,3.8083,3.8103,3.8077,3.8078,3.8078,0,3.781,3.7833,3.7868,3.7896,3.7905,3.7922,3.7947,3.7965,3.7987,3.7996,3.8012,3.802,3.8042,3.8037,3.8067,3.8057,3.8068,3.8077,3.8078,3.808,3.8074,3.8087,3.811,3.8113,3.8083,3.8083,3.8082,0,3.7814,3.7853,3.788,3.7892,3.7925,3.7936,3.795,3.7972,3.7986,3.8007,3.8017,3.8039,3.8051,3.8068,3.8082,3.8077,3.8111,3.8107,3.8118,3.8118,3.8125,3.8124,3.815,3.8132,3.8132,3.8132,3.8132,0,3.7834,3.7855,3.7882,3.7899,3.7923,3.794,3.7963,3.7977,3.7997,3.8015,3.8026,3.8042,3.806,3.8079,3.8089,3.8113,3.8118,3.8125,3.8128,3.8125,3.8124,3.8132,3.8131,3.8133,3.8133,3.8132,3.8132,0,3.7842,3.7861,3.7891,3.7921,3.7928,3.7945,3.7969,3.7985,3.7999,3.8022,3.8029,3.805,3.8073,3.8089,3.8117,3.8125,3.815,3.8153,3.8144,3.8145,3.8156,3.8155,3.8188,3.8193,3.8171,3.8171,3.8171,0,3.7854,3.7871,3.7903,3.7917,3.7931,3.7953,3.7969,3.7986,3.8001,3.8029,3.8041,3.8065,3.8085,3.8121,3.8138,3.816,3.8163,3.8173,3.8166,3.8163,3.8164,3.8163,3.8165,3.8174,3.8174,3.8175,3.8175,0,3.7872,3.7881,3.7904,3.793,3.7949,3.7969,3.799,3.8001,3.8022,3.8038,3.8063,3.8079,3.8109,3.8133,3.8157,3.817,3.8176,3.8177,3.8181,3.8178,3.8172,3.8176,3.8147,3.8176,3.8176,3.8176,3.8176,3.8176,3.7883,3.7899,3.7924,3.7949,3.7967,3.7987,3.8003,3.802,3.8042,3.8069,3.8077,3.8103,3.8125,3.8158,3.8172,3.8191,3.819,3.8196,3.8197,3.8198,3.8198,3.8169,3.8195,3.8195,3.8195,3.8195,3.8195,0,3.7902,3.7919,3.7942,3.7972,3.7992,3.7998,3.8021,3.8037,3.806,3.808,3.8101,3.8129,3.8152,3.8172,3.8195,3.8207,3.8211,3.8213,3.8212,3.8215,3.8198,3.8192,3.821,3.821,3.821,3.821,3.821,3.821,3.7914,3.7942,3.7954,3.7991,3.8007,3.8034,3.8047,3.8065,3.8082,3.8114,3.8134,3.8147,3.8167,3.8193,3.8214,3.8219,3.8227,3.8229,3.8235,3.8218,3.8216,3.8215,3.821,3.8231,3.8231,3.8251,3.8251,3.8251]}]]